When you browse on this site, cookies collect data to enhance your experience and personalize the content and advertising you see.
Visit our Privacy Policy to learn more. By continuing to use the site, you agree to this use of cookies and data.
  • In Hungary
  • List of Countries
  • For 7 days
  • Water Temperature
  • Weather Map
  • News
  • Weather Widgets
  • user-avatar
    Login

    Hourly Weather Lukino

    Today, 25 January, Saturday

    Time Temperature Precipitation Wind Pressure Humidity
    00:00 -2°C° 0 mm 4 mps 732 mmHg 87%
    01:00 -3°C° 0 mm 4 mps 732 mmHg 89%
    02:00 -3°C° 0 mm 4 mps 732 mmHg 91%
    03:00 -3°C° 0 mm 4 mps 732 mmHg 89%
    04:00 -3°C° 0 mm 4 mps 731 mmHg 87%
    05:00 -3°C° 0 mm 4 mps 731 mmHg 84%
    06:00 -3°C° 0 mm 4 mps 731 mmHg 86%
    07:00 -3°C° 0 mm 4 mps 730 mmHg 87%
    08:00 -4°C° 0 mm 4 mps 730 mmHg 88%
    09:00 -4°C° 0.4 mm 5 mps 729 mmHg 89%
    10:00 -2°C° 0.4 mm 5 mps 729 mmHg 90%
    11:00 -3°C° 0.4 mm 6 mps 729 mmHg 91%
    12:00 -3°C° 0.2 mm 6 mps 729 mmHg 83%
    13:00 -3°C° 0.2 mm 6 mps 729 mmHg 76%
    14:00 -4°C° 0.2 mm 6 mps 729 mmHg 68%
    15:00 -4°C° 0 mm 6 mps 730 mmHg 72%
    16:00 -5°C° 0 mm 6 mps 730 mmHg 76%
    17:00 -5°C° 0 mm 5 mps 731 mmHg 80%
    18:00 -5°C° 0.1 mm 6 mps 731 mmHg 82%
    19:00 -6°C° 0.1 mm 6 mps 732 mmHg 85%
    20:00 -6°C° 0.1 mm 6 mps 732 mmHg 87%
    21:00 -6°C° 0.1 mm 6 mps 733 mmHg 85%
    22:00 -6°C° 0.1 mm 5 mps 734 mmHg 84%
    23:00 -6°C° 0.1 mm 5 mps 735 mmHg 82%

    Tomorrow, 26 January, Sunday

    Time Temperature Precipitation Wind Pressure Humidity
    00:00 -6°C° 0 mm 5 mps 736 mmHg 82%
    01:00 -6°C° 0 mm 5 mps 737 mmHg 82%
    02:00 -6°C° 0 mm 5 mps 738 mmHg 83%
    03:00 -6°C° 0 mm 5 mps 739 mmHg 82%
    04:00 -5°C° 0 mm 4 mps 739 mmHg 82%
    05:00 -5°C° 0 mm 4 mps 740 mmHg 82%
    06:00 -5°C° 0 mm 4 mps 740 mmHg 84%
    07:00 -6°C° 0 mm 3 mps 741 mmHg 85%
    08:00 -6°C° 0 mm 3 mps 741 mmHg 87%
    09:00 -6°C° 0 mm 3 mps 741 mmHg 85%
    10:00 -5°C° 0 mm 3 mps 741 mmHg 83%
    11:00 -5°C° 0 mm 3 mps 742 mmHg 81%
    12:00 -5°C° 0.1 mm 3 mps 741 mmHg 85%
    13:00 -4°C° 0.1 mm 4 mps 740 mmHg 89%
    14:00 -4°C° 0.1 mm 4 mps 740 mmHg 93%
    15:00 -4°C° 0.7 mm 4 mps 739 mmHg 94%
    16:00 -4°C° 0.7 mm 5 mps 738 mmHg 94%
    17:00 -4°C° 0.7 mm 5 mps 737 mmHg 95%
    18:00 -2°C° 0.6 mm 5 mps 736 mmHg 95%
    19:00 0°C° 0.6 mm 5 mps 736 mmHg 95%
    20:00 +1°C° 0.6 mm 5 mps 735 mmHg 95%
    21:00 +1°C° 0.3 mm 5 mps 736 mmHg 94%
    22:00 +1°C° 0.3 mm 5 mps 736 mmHg 94%
    23:00 +1°C° 0.3 mm 5 mps 736 mmHg 94%

    Day after tomorrow, 27 January, Monday

    Time Temperature Precipitation Wind Pressure Humidity
    00:00 0°C° 0.1 mm 5 mps 737 mmHg 94%
    01:00 -1°C° 0.1 mm 5 mps 738 mmHg 94%
    02:00 -1°C° 0.1 mm 4 mps 739 mmHg 94%
    03:00 -3°C° 0 mm 4 mps 739 mmHg 93%
    04:00 -4°C° 0 mm 3 mps 740 mmHg 92%
    05:00 -5°C° 0 mm 3 mps 741 mmHg 91%
    06:00 -5°C° 0 mm 2 mps 742 mmHg 91%
    07:00 -6°C° 0 mm 2 mps 742 mmHg 92%
    08:00 -7°C° 0 mm 2 mps 743 mmHg 92%
    09:00 -6°C° 0 mm 2 mps 744 mmHg 90%
    10:00 -4°C° 0 mm 1 mps 744 mmHg 88%
    11:00 -4°C° 0 mm 1 mps 745 mmHg 85%
    12:00 -4°C° 0 mm 1 mps 745 mmHg 85%
    13:00 -4°C° 0 mm 1 mps 745 mmHg 84%
    14:00 -4°C° 0 mm 1 mps 745 mmHg 84%
    15:00 -6°C° 0 mm 2 mps 745 mmHg 85%
    16:00 -6°C° 0 mm 2 mps 745 mmHg 85%
    17:00 -6°C° 0 mm 2 mps 746 mmHg 86%
    18:00 -7°C° 0 mm 3 mps 746 mmHg 86%
    19:00 -7°C° 0 mm 3 mps 746 mmHg 86%
    20:00 -7°C° 0 mm 3 mps 746 mmHg 87%
    21:00 -7°C° 0.1 mm 3 mps 746 mmHg 87%
    22:00 -7°C° 0.1 mm 3 mps 745 mmHg 88%
    23:00 -8°C° 0.1 mm 3 mps 745 mmHg 89%

    28 January, Tuesday

    Time Temperature Precipitation Wind Pressure Humidity
    00:00 -8°C° 0.2 mm 3 mps 745 mmHg 90%
    01:00 -7°C° 0.2 mm 3 mps 745 mmHg 91%
    02:00 -7°C° 0.2 mm 3 mps 744 mmHg 93%
    03:00 -7°C° 0.2 mm 3 mps 744 mmHg 93%
    04:00 -7°C° 0.2 mm 3 mps 744 mmHg 93%
    05:00 -7°C° 0.2 mm 3 mps 744 mmHg 93%
    06:00 -7°C° 0.1 mm 3 mps 744 mmHg 93%
    07:00 -7°C° 0.1 mm 3 mps 743 mmHg 92%
    08:00 -8°C° 0.1 mm 3 mps 743 mmHg 92%
    09:00 -7°C° 0.1 mm 3 mps 743 mmHg 92%
    10:00 -7°C° 0.1 mm 3 mps 743 mmHg 92%
    11:00 -6°C° 0.1 mm 3 mps 743 mmHg 92%
    12:00 -6°C° 0.1 mm 3 mps 743 mmHg 92%
    13:00 -5°C° 0.1 mm 2 mps 743 mmHg 93%
    14:00 -4°C° 0.1 mm 2 mps 743 mmHg 93%
    15:00 -4°C° 0.1 mm 2 mps 743 mmHg 94%
    16:00 -4°C° 0.1 mm 2 mps 742 mmHg 94%
    17:00 -4°C° 0.1 mm 2 mps 742 mmHg 95%
    18:00 -4°C° 0.2 mm 2 mps 742 mmHg 96%
    19:00 -3°C° 0.2 mm 2 mps 742 mmHg 96%
    20:00 -3°C° 0.2 mm 2 mps 742 mmHg 97%
    21:00 -3°C° 0.2 mm 2 mps 742 mmHg 97%
    22:00 -2°C° 0.2 mm 2 mps 742 mmHg 97%
    23:00 -2°C° 0.2 mm 2 mps 742 mmHg 97%

    29 January, Wednesday

    Time Temperature Precipitation Wind Pressure Humidity
    00:00 -2°C° 0.1 mm 2 mps 742 mmHg 97%
    01:00 -2°C° 0.1 mm 2 mps 742 mmHg 97%
    02:00 -2°C° 0.1 mm 2 mps 741 mmHg 97%
    03:00 -2°C° 0.1 mm 2 mps 741 mmHg 97%
    04:00 -2°C° 0.1 mm 2 mps 741 mmHg 97%
    05:00 -3°C° 0.1 mm 2 mps 741 mmHg 97%
    06:00 -3°C° 0.1 mm 2 mps 741 mmHg 97%
    07:00 -3°C° 0.1 mm 2 mps 741 mmHg 98%
    08:00 -1°C° 0.1 mm 1 mps 741 mmHg 98%
    09:00 -2°C° 0.1 mm 2 mps 741 mmHg 98%
    10:00 -1°C° 0.1 mm 2 mps 741 mmHg 97%
    11:00 +1°C° 0.1 mm 2 mps 741 mmHg 97%
    12:00 +1°C° 0 mm 2 mps 741 mmHg 97%
    13:00 +1°C° 0 mm 2 mps 741 mmHg 97%
    14:00 +1°C° 0 mm 2 mps 741 mmHg 97%
    15:00 +1°C° 0 mm 2 mps 741 mmHg 97%
    16:00 0°C° 0 mm 3 mps 741 mmHg 97%
    17:00 -1°C° 0 mm 3 mps 741 mmHg 97%
    18:00 -1°C° 0 mm 3 mps 741 mmHg 97%
    19:00 -1°C° 0 mm 3 mps 741 mmHg 97%
    20:00 -1°C° 0 mm 3 mps 741 mmHg 97%
    21:00 -1°C° 0 mm 3 mps 741 mmHg 96%
    22:00 -1°C° 0 mm 3 mps 741 mmHg 95%
    23:00 -1°C° 0 mm 3 mps 741 mmHg 95%

    30 January, Thursday

    Time Temperature Precipitation Wind Pressure Humidity
    00:00 -1°C° 0 mm 3 mps 740 mmHg 95%
    01:00 -1°C° 0 mm 3 mps 740 mmHg 96%
    02:00 -1°C° 0 mm 3 mps 740 mmHg 97%
    03:00 -1°C° 0 mm 3 mps 740 mmHg 96%
    04:00 -1°C° 0 mm 3 mps 740 mmHg 96%
    05:00 -1°C° 0 mm 3 mps 739 mmHg 96%
    06:00 -1°C° 0 mm 3 mps 739 mmHg 95%
    07:00 -1°C° 0 mm 3 mps 739 mmHg 95%
    08:00 -1°C° 0 mm 3 mps 739 mmHg 95%
    09:00 -1°C° 0 mm 3 mps 739 mmHg 94%
    10:00 -1°C° 0 mm 3 mps 739 mmHg 93%
    11:00 -2°C° 0 mm 4 mps 739 mmHg 92%
    12:00 -2°C° 0 mm 4 mps 739 mmHg 91%
    13:00 -2°C° 0 mm 4 mps 738 mmHg 91%
    14:00 -2°C° 0 mm 4 mps 738 mmHg 90%
    15:00 -3°C° 0 mm 4 mps 738 mmHg 91%
    16:00 -3°C° 0 mm 4 mps 738 mmHg 92%
    17:00 -3°C° 0 mm 4 mps 738 mmHg 93%
    18:00 -3°C° 0.2 mm 4 mps 738 mmHg 94%
    19:00 -3°C° 0.2 mm 4 mps 737 mmHg 94%
    20:00 -4°C° 0.2 mm 4 mps 737 mmHg 95%
    21:00 -4°C° 0.2 mm 4 mps 737 mmHg 94%
    22:00 -4°C° 0.2 mm 4 mps 737 mmHg 93%
    23:00 -4°C° 0.2 mm 4 mps 737 mmHg 93%
    Show more